Location: Aufkirchen
(47.9603°N, 11.3653°E)
Time: 15:00:26
(UTC+01:00)

Transit 2A Rocket - Pass Details

Date: 12 December 2020
Orbit: 592 x 910 km, 66.7° (Epoch: 21 January)

Event Time Altitude Azimuth Distance (km) Brightness Sun altitude
Rises 07:20:16 0° 325° (NW) 3,115 - -5.8°
Exits shadow 07:21:15 - 325° (NW) 2,727 7.3 -5.7°
Reaches altitude 10° 07:22:43 10° 326° (NNW) 2,141 6.8 -5.5°
Maximum altitude 07:27:33 82° 55° (NE) 657 4.8 -4.8°
Drops below altitude 10° 07:31:59 10° 143° (SE) 1,973 8.5 -4.1°
Sets 07:34:09 0° 144° (SE) 2,848 9.4 -3.8°
